Location: Unnamed
(53.9021°N, 27.5568°E)
Time: 19:33:43
(UTC+03:00)

Starlink (trailer) - Visible Passes

Search period start: 17 January 2020 00:00
Search period end: 27 January 2020 00:00
Orbit: 528 x 531 km, 53.0° (Epoch: 16 January)

Date Brightness Start Highest point End Pass type
(mag) Time Alt. Az. Time Alt. Az. Time Alt. Az.
18 Jan 5.4 08:36:38 10° SW 08:40:19 34° SSE 08:43:59 10° E visible
19 Jan 6.6 06:48:48 10° SSE 06:50:02 11° SE 06:51:16 10° ESE visible
19 Jan 5.1 08:24:33 10° SW 08:28:18 38° SSE 08:32:04 10° E visible
20 Jan 6.4 06:36:05 10° SSE 06:37:59 13° SE 06:39:53 10° ESE visible
20 Jan 4.8 08:12:31 10° SW 08:16:19 42° SSE 08:20:09 10° E visible
21 Jan 6.3 06:23:37 10° S 06:25:56 15° SE 06:28:16 10° ESE visible
21 Jan 4.6 08:00:30 10° SW 08:04:22 46° SSE 08:08:14 10° E visible
22 Jan 6.0 06:12:28 14° SSE 06:13:55 17° SE 06:16:36 10° E visible
22 Jan 4.3 07:48:31 10° SW 07:52:25 50° SSE 07:56:20 10° E visible
23 Jan 5.7 06:01:31 19° SSE 06:01:56 19° SE 06:04:51 10° E visible
23 Jan 4.1 07:36:47 11° WSW 07:40:30 55° SSE 07:44:27 10° E visible
24 Jan 5.7 05:50:26 21° SE 05:50:26 21° SE 05:53:06 10° E visible
24 Jan 4.0 07:25:42 18° WSW 07:28:35 59° SSE 07:32:34 10° E visible
25 Jan 5.9 05:39:15 21° ESE 05:39:15 21° ESE 05:41:19 10° E visible
25 Jan 3.8 07:14:31 25° WSW 07:16:42 63° SSE 07:20:41 10° E visible
26 Jan 6.1 05:28:00 19° ESE 05:28:00 19° ESE 05:29:32 10° E visible
26 Jan 3.7 07:03:15 34° WSW 07:04:49 67° SSE 07:08:50 10° E visible
